Date String (YYYY-MM-DD hh:mm:ss) UTC,Instrument flags,Ambient pressure (hPa),Sample flow (lpm),Bypass flow (lpm),Sample temperature (°C),Ambient temperature (°C),ASC tube jacket temperature (°C),LED temperature (°C),Box temperature (°C),Sample RH (%),Span deviation,Mass concentration (μg/m³),Mass concentration (μg/m³),Mass concentration (μg/m³)
DateTimeUTC,F1_M11,P_M11,Q1_M11,Q2_M11,T1_M11,T2_M11,T3_M11,T4_M11,T5_M11,U1_M11,ZSPAN_M11,X0_M11,X2_M11,X1_M11
2022-09-27 23:00:00,,0832.8,5.00,0.00,30.1,27.2,00.0,38.7,31.9,20.6,0000.0,0012.65,0003.90,0003.19
2022-09-27 23:01:00,,0832.8,5.01,0.00,30.0,27.4,00.0,38.7,31.8,20.9,0000.0,0011.98,0003.92,0003.20
2022-09-27 23:02:00,,0832.9,5.00,0.00,30.0,27.7,00.0,38.7,31.8,20.6,0000.0,0012.78,0003.98,0003.21
2022-09-27 23:03:00,,0832.9,5.00,0.00,30.0,28.0,00.0,38.7,31.8,20.6,0000.0,0013.18,0004.02,0003.22
2022-09-27 23:04:00,,0832.8,5.01,0.00,30.0,28.1,00.0,38.7,31.9,20.6,0000.0,0012.67,0004.04,0003.23
2022-09-27 23:05:00,,0832.8,4.99,0.00,30.0,28.3,00.0,38.7,31.9,20.4,0000.0,0012.77,0004.04,0003.23
2022-09-27 23:06:00,,0832.8,5.01,0.00,30.0,28.4,00.0,38.7,31.9,20.5,0000.0,0013.09,0004.04,0003.24
2022-09-27 23:07:00,,0832.8,4.98,0.00,30.0,28.5,00.0,38.7,31.9,20.5,0000.0,0013.60,0004.07,0003.25
2022-09-27 23:08:00,,0832.8,5.01,0.00,30.0,28.6,00.0,38.7,31.9,20.2,0000.0,0013.25,0004.05,0003.25
2022-09-27 23:09:00,,0832.8,4.99,0.00,30.0,28.7,00.0,38.7,31.9,20.1,0000.0,0011.98,0003.99,0003.24
2022-09-27 23:10:00,,0832.8,5.01,0.00,30.0,28.7,00.0,38.7,32.0,20.3,0000.0,0011.79,0003.96,0003.23
2022-09-27 23:11:00,,0832.8,4.99,0.00,30.0,28.8,00.0,38.7,32.0,20.0,0000.0,0012.02,0003.97,0003.23
2022-09-27 23:12:00,,0832.8,5.00,0.00,30.0,28.8,00.0,38.7,32.0,20.0,0000.0,0012.60,0004.03,0003.24
2022-09-27 23:13:00,,0832.8,5.00,0.00,30.1,28.8,00.0,38.8,32.0,20.1,0000.0,0012.85,0004.02,0003.26
2022-09-27 23:14:00,,0832.8,4.99,0.00,30.1,28.8,00.0,38.8,32.0,20.2,0000.0,0012.32,0003.97,0003.27
2022-09-27 23:15:00,,0832.8,5.01,0.00,30.1,28.9,00.0,38.8,32.0,20.3,0000.0,0012.24,0003.97,0003.29
2022-09-27 23:16:00,,0832.8,4.99,0.00,30.1,29.0,00.0,38.8,32.0,20.4,0000.0,0013.04,0004.05,0003.31
2022-09-27 23:17:00,,0832.8,5.00,0.00,30.1,29.0,00.0,38.8,32.1,20.5,0000.0,0013.18,0004.14,0003.33
2022-09-27 23:18:00,,0832.8,5.00,0.00,30.2,29.0,00.0,38.8,32.1,20.2,0000.0,0012.44,0004.14,0003.35
2022-09-27 23:19:00,,0832.8,5.00,0.00,30.2,28.1,00.0,38.8,32.1,19.7,0000.0,0012.44,0004.20,0003.37
2022-09-27 23:20:00,,0832.8,5.00,0.00,30.1,26.6,00.0,38.8,31.9,19.2,0000.0,0012.13,0004.25,0003.38
2022-09-27 23:21:00,,0832.9,4.99,0.00,30.1,26.3,00.0,38.7,31.8,19.4,0000.0,0012.07,0004.25,0003.39
2022-09-27 23:22:00,,0832.9,5.00,0.00,30.0,26.6,00.0,38.7,31.7,19.5,0000.0,0013.09,0004.25,0003.39
2022-09-27 23:23:00,,0832.8,4.99,0.00,29.9,26.9,00.0,38.6,31.6,19.7,0000.0,0012.46,0004.17,0003.38
2022-09-27 23:24:00,,0832.9,5.01,0.00,29.9,27.3,00.0,38.6,31.6,20.0,0000.0,0011.79,0004.12,0003.36
2022-09-27 23:25:00,,0832.9,5.00,0.00,29.9,27.6,00.0,38.6,31.7,19.9,0000.0,0012.15,0004.13,0003.35
2022-09-27 23:26:00,,0832.9,5.00,0.00,29.8,27.9,00.0,38.6,31.7,19.9,0000.0,0011.85,0004.07,0003.31
2022-09-27 23:27:00,,0832.9,5.01,0.00,29.9,28.1,00.0,38.6,31.7,19.8,0000.0,0010.82,0003.98,0003.26
2022-09-27 23:28:00,,0832.9,4.99,0.00,29.9,28.2,00.0,38.6,31.7,19.6,0000.0,0010.53,0003.86,0003.21
2022-09-27 23:29:00,,0832.8,5.00,0.00,29.9,28.4,00.0,38.6,31.7,19.7,0000.0,0010.33,0003.77,0003.16
2022-09-27 23:30:00,,0832.8,5.00,0.00,29.9,28.5,00.0,38.6,31.8,19.6,0000.0,0009.82,0003.64,0003.11
2022-09-27 23:31:00,,0832.8,5.00,0.00,29.9,28.6,00.0,38.6,31.8,19.5,0000.0,0009.41,0003.54,0003.01
2022-09-27 23:32:00,,0832.8,4.99,0.00,29.9,28.6,00.0,38.6,31.9,19.3,0000.0,0009.25,0003.44,0002.90
2022-09-27 23:33:00,,0832.8,5.01,0.00,29.9,28.7,00.0,38.6,31.9,19.3,0000.0,0008.02,0003.37,0002.80
2022-09-27 23:34:00,,0832.8,5.00,0.00,29.9,28.7,00.0,38.6,31.9,19.4,0000.0,0007.82,0003.33,0002.72
2022-09-27 23:35:00,,0832.8,5.00,0.00,30.0,28.8,00.0,38.6,31.9,19.3,0000.0,0007.34,0003.26,0002.64
2022-09-27 23:36:00,,0832.8,5.01,0.00,30.0,28.8,00.0,38.7,32.0,19.0,0000.0,0006.62,0003.17,0002.56
2022-09-27 23:37:00,,0832.8,5.00,0.00,30.0,28.9,00.0,38.7,32.0,18.9,0000.0,0007.23,0003.12,0002.50
2022-09-27 23:38:00,,0832.9,5.00,0.00,30.0,28.9,00.0,38.7,32.0,19.1,0000.0,0006.87,0003.02,0002.45
2022-09-27 23:39:00,,0832.8,5.01,0.00,30.1,28.9,00.0,38.7,32.0,19.1,0000.0,0005.99,0002.91,0002.40
2022-09-27 23:40:00,,0832.9,4.99,0.00,30.1,29.0,00.0,38.7,32.0,19.1,0000.0,0005.83,0002.88,0002.36
2022-09-27 23:41:00,,0832.9,5.01,0.00,30.1,29.0,00.0,38.8,32.1,19.1,0000.0,0005.94,0002.89,0002.35
2022-09-27 23:42:00,,0833.0,4.99,0.00,30.1,28.6,00.0,38.8,32.0,19.2,0000.0,0006.02,0002.86,0002.34
2022-09-27 23:43:00,,0833.0,5.00,0.00,30.1,27.3,00.0,38.7,31.9,19.0,0000.0,0005.93,0002.88,0002.33
2022-09-27 23:44:00,,0833.0,5.00,0.00,30.1,27.0,00.0,38.7,31.9,19.0,0000.0,0005.66,0002.82,0002.31
2022-09-27 23:45:00,,0833.0,5.01,0.00,30.0,27.2,00.0,38.7,31.8,19.1,0000.0,0006.16,0002.83,0002.29
2022-09-27 23:46:00,,0833.0,5.00,0.00,30.0,27.4,00.0,38.7,31.7,19.2,0000.0,0006.33,0002.89,0002.30
2022-09-27 23:47:00,,0833.0,4.99,0.00,30.0,27.7,00.0,38.7,31.8,19.3,0000.0,0006.42,0002.92,0002.29
2022-09-27 23:48:00,,0833.0,4.99,0.00,29.9,28.0,00.0,38.7,31.8,19.1,0000.0,0005.96,0002.98,0002.28
2022-09-27 23:49:00,,0833.0,5.01,0.00,29.9,28.2,00.0,38.6,31.8,18.6,0000.0,0005.60,0002.97,0002.28
2022-09-27 23:50:00,,0833.0,4.99,0.00,29.9,28.3,00.0,38.7,31.9,18.7,0000.0,0005.57,0002.94,0002.25
2022-09-27 23:51:00,,0833.0,5.00,0.00,30.0,28.5,00.0,38.7,31.9,18.5,0000.0,0005.51,0002.92,0002.24
2022-09-27 23:52:00,,0833.0,4.99,0.00,30.0,28.6,00.0,38.7,31.9,18.5,0000.0,0005.29,0002.89,0002.21
2022-09-27 23:53:00,,0833.0,5.01,0.00,30.0,28.7,00.0,38.7,31.9,18.3,0000.0,0005.32,0002.92,0002.19
2022-09-27 23:54:00,,0833.0,4.99,0.00,30.0,28.7,00.0,38.7,31.9,18.0,0000.0,0005.24,0002.88,0002.18
2022-09-27 23:55:00,,0833.1,5.01,0.00,30.0,28.8,00.0,38.7,32.0,18.2,0000.0,0006.16,0002.85,0002.16
2022-09-27 23:56:00,,0833.0,4.99,0.00,30.0,28.9,00.0,38.7,32.0,18.1,0000.0,0005.63,0002.80,0002.15
2022-09-27 23:57:00,,0833.1,5.01,0.00,30.1,28.9,00.0,38.7,32.0,18.1,0000.0,0005.50,0002.74,0002.13
2022-09-27 23:58:00,,0833.0,5.00,0.00,30.1,28.9,00.0,38.7,32.0,18.2,0000.0,0005.38,0002.68,0002.11
2022-09-27 23:59:00,,0833.0,5.00,0.00,30.1,29.0,00.0,38.8,32.0,18.4,0000.0,0005.05,0002.57,0002.09
